Location: *
(33.8649°S, 62.1526°E)
Time: 16:41:29
(UTC+00:00)

Cosmos 1553 Rocket - Pass Details

Date: 17 January 2021
Orbit: 941 x 1008 km, 82.9° (Epoch: 04 March)

Event Time Altitude Azimuth Distance (km) Brightness Sun altitude
Exits shadow 16:54:52 10° 348° (NNW) 2,769 6.1 -19.7°
Reaches altitude 10° 16:54:59 10° 348° (NNW) 2,728 6.0 -19.7°
Maximum altitude 17:01:13 73° 264° (W) 1,018 4.2 -20.6°
Drops below altitude 10° 17:07:26 10° 178° (S) 2,714 6.9 -21.5°
Sets 17:09:57 0° 176° (S) 3,659 7.6 -21.9°
